Spencer, IA

7:30 AM CDT on October 23, 2017 (GMT -0500)
Spencer Municipal

Weather History for KSPW - December, 2013

Change the Weather History Date:

Tuesday, December 17, 2013

  Actual Average Record
Temperature  
Mean Temperature 22 °F -  
Max Temperature 30 °F 25 °F 46 °F (2001)
Min Temperature 9 °F 8 °F -18 °F (2016)
Degree Days  
Heating Degree Days 42    
Moisture  
Dew Point 19 °F    
Average Humidity 76    
Maximum Humidity 93    
Minimum Humidity 64    
Precipitation  
Precipitation 0.00 in - - ()
Sea Level Pressure  
Sea Level Pressure 30.15 in    
Wind  
Wind Speed 15 mph (WNW)    
Max Wind Speed 31 mph    
Max Gust Speed 38 mph    
Visibility 8 miles    
Events Fog , Snow    
Averages and records for this station are not official NWS values.
T = Trace of Precipitation, MM = Missing Value Source: NWS Daily Summary

Daily Weather History Graph

Daily Weather History Graph

Search for Another Location

Airport or City:

Trip Planner

Search our weather history database for the weather conditions in past years. The results will help you decide how hot, cold, wet, or windy it might be!

Date:

Astronomy

Dec. 17, 2013 Rise Set
Actual Time 7:47 AM CST 4:46 PM CST
Civil Twilight 7:14 AM CST 5:19 PM CST
Nautical Twilight 6:38 AM CST 5:55 PM CST
Astronomical Twilight 6:04 AM CST 6:30 PM CST
Moon 5:29 PM CST (12/17) 7:42 AM CST (12/17)
Length of Visible Light 10h 04m
Length of Day
8h 59m
Full, 100% of the Moon is Illuminated
Dec 17
Full
Dec 25
Last Quarter
Jan 1
New
Jan 7
First Quarter
Jan 15
Full

Hourly Weather History & Observations

Time (CST) Temp. Windchill Dew Point Humidity Pressure Visibility Wind Dir Wind Speed Gust Speed Precip Events Conditions
12:53 AM 27.0 °F 16.1 °F 21.0 °F 78% 30.09 in 10.0 mi West 12.7 mph - N/A   Overcast
1:53 AM 21.0 °F 13.4 °F 18.0 °F 88% 30.10 in 10.0 mi NW 5.8 mph - N/A   Clear
2:53 AM 25.0 °F 13.6 °F 21.0 °F 85% 30.11 in 10.0 mi West 12.7 mph - N/A   Mostly Cloudy
3:53 AM 28.9 °F 17.3 °F 23.0 °F 78% 30.09 in 10.0 mi West 16.1 mph - N/A   Mostly Cloudy
4:53 AM 30.9 °F 19.1 °F 24.1 °F 76% 30.09 in 10.0 mi West 18.4 mph - N/A   Overcast
5:28 AM 30.9 °F 19.4 °F 25.0 °F 79% 30.06 in 1.8 mi WNW 17.3 mph - 0.00 in Snow Light Snow
5:39 AM 30.0 °F 18.3 °F 27.0 °F 88% 30.06 in 0.5 mi NW 17.3 mph - 0.00 in Fog , Snow Snow
5:48 AM 30.2 °F 18.9 °F 28.4 °F 93% 30.06 in 1.2 mi WNW 16.1 mph - 0.00 in Snow Light Snow
5:53 AM 30.0 °F 19.1 °F 27.0 °F 88% 30.12 in 3.0 mi West 15.0 mph - 0.00 in Snow Light Snow
6:01 AM 30.0 °F 18.7 °F 27.0 °F 88% 30.06 in 9.0 mi West 16.1 mph - 0.00 in   Mostly Cloudy
6:53 AM 28.9 °F 16.9 °F 24.1 °F 82% 30.13 in 10.0 mi WNW 17.3 mph - 0.00 in   Scattered Clouds
7:53 AM 28.9 °F 15.4 °F 21.0 °F 72% 30.15 in 4.0 mi WNW 21.9 mph - N/A   Haze
8:53 AM 27.0 °F 13.2 °F 19.0 °F 72% 30.17 in 10.0 mi WNW 20.7 mph - N/A   Clear
9:53 AM 28.9 °F 15.4 °F 19.0 °F 67% 30.19 in 10.0 mi West 21.9 mph - N/A   Clear
10:53 AM 30.0 °F 16.0 °F 19.9 °F 66% 30.20 in 10.0 mi WNW 25.3 mph 35.7 mph N/A   Clear
11:49 AM 28.4 °F 13.8 °F 19.4 °F 69% 30.15 in 2.5 mi WNW 25.3 mph 34.5 mph 0.00 in   Clear
11:53 AM 28.9 °F 13.2 °F 19.0 °F 67% 30.20 in 2.0 mi NW 31.1 mph 38.0 mph 0.00 in   Clear
12:13 PM 28.9 °F 14.5 °F 18.0 °F 64% 30.15 in 4.0 mi WNW 25.3 mph 34.5 mph 0.00 in   Clear
12:53 PM 28.9 °F 14.8 °F 18.0 °F 64% 30.20 in 9.0 mi WNW 24.2 mph 31.1 mph 0.00 in   Clear
1:53 PM 28.9 °F 15.1 °F 18.0 °F 64% 30.20 in 10.0 mi WNW 23.0 mph 33.4 mph N/A   Clear
2:53 PM 28.9 °F 16.1 °F 19.0 °F 67% 30.21 in 10.0 mi WNW 19.6 mph - N/A   Clear
3:53 PM 28.0 °F 15.3 °F 18.0 °F 66% 30.20 in 10.0 mi WNW 18.4 mph - N/A   Clear
4:53 PM 21.9 °F 11.0 °F 15.1 °F 75% 30.21 in 10.0 mi WNW 10.4 mph - N/A   Clear
5:53 PM 19.9 °F 7.3 °F 12.9 °F 74% 30.21 in 10.0 mi West 12.7 mph - N/A   Clear
6:53 PM 18.0 °F 5.4 °F 12.0 °F 78% 30.21 in 10.0 mi West 11.5 mph - N/A   Clear
7:53 PM 17.1 °F 7.6 °F 12.0 °F 81% 30.20 in 10.0 mi WSW 6.9 mph - N/A   Clear
8:53 PM 18.0 °F 11.1 °F 12.0 °F 78% 30.20 in 10.0 mi West 4.6 mph - N/A   Clear
9:53 PM 16.0 °F 7.4 °F 10.9 °F 81% 30.19 in 10.0 mi WSW 5.8 mph - N/A   Clear
10:53 PM 15.1 °F 7.7 °F 10.0 °F 80% 30.16 in 10.0 mi SSE 4.6 mph - N/A   Clear
11:53 PM 9.0 °F 2.4 °F 3.9 °F 80% 30.14 in 10.0 mi SE 3.5 mph - N/A   Clear